This is the latest recevied weather packets stored in our database for station/object K0PFX-8. If no packets are shown the sender has not sent any weather packets the latest 10 day(s).
| Time | Temp. | Humidity | Pressure | Rain* | Wind** | Luminosity | Snow |
|---|---|---|---|---|---|---|---|
| 1777746059 | 14.44° C | 40% | 1021.3 hPa | 0 mm | 2.68 m/s, 340° | - | - |
| 1777745159 | 14.44° C | 42% | 1021.5 hPa | 0 mm | 3.58 m/s, 15° | - | - |
| 1777744260 | 13.89° C | 44% | 1021.5 hPa | 0 mm | 2.24 m/s, 248° | - | - |
| 1777743359 | 13.89° C | 41% | 1021.6 hPa | 0 mm | 1.79 m/s, 236° | - | - |
| 1777742461 | 13.89° C | 38% | 1021.8 hPa | 0 mm | 2.24 m/s, 336° | - | - |
| 1777741561 | 13.89° C | 36% | 1021.7 hPa | 0 mm | 2.24 m/s, 243° | - | - |
| 1777740663 | 14.44° C | 35% | 1021.4 hPa | 0 mm | 1.79 m/s, 75° | - | - |
| 1777739762 | 14.44° C | 41% | 1021.5 hPa | 0 mm | 2.68 m/s, 83° | - | - |
| 1777738864 | 13.89° C | 46% | 1021.5 hPa | 0 mm | 0.89 m/s, 225° | - | - |
| 1777737963 | 13.89° C | 46% | 1021.6 hPa | 0 mm | 0 m/s | - | - |
| 1777737064 | 13.33° C | 47% | 1021.6 hPa | 0 mm | 3.13 m/s, 359° | - | - |
| 1777736163 | 13.89° C | 46% | 1021.5 hPa | 0 mm | 2.68 m/s, 8° | - | - |
| 1777735264 | 13.89° C | 51% | 1021.5 hPa | 0 mm | 2.68 m/s, 87° | - | - |
| 1777734363 | 13.89° C | 56% | 1021.3 hPa | 0 mm | 1.79 m/s, 308° | - | - |
| 1777732564 | 12.78° C | 63% | 1021.1 hPa | 0 mm | 1.79 m/s, 359° | - | - |
| 1777731666 | 12.22° C | 67% | 1021 hPa | 0 mm | 1.79 m/s, 56° | - | - |
| 1777730765 | 12.22° C | 66% | 1021.1 hPa | 0 mm | 2.24 m/s, 359° | - | - |
| 1777729867 | 12.22° C | 73% | 1020.9 hPa | 0 mm | 0.45 m/s, 312° | - | - |
| 1777728965 | 11.67° C | 74% | 1020.8 hPa | 0 mm | 1.79 m/s, 41° | - | - |
| 1777728067 | 11.67° C | 77% | 1020.7 hPa | 0 mm | 0 m/s | - | - |
| 1777727166 | 11.11° C | 78% | 1020.7 hPa | 0 mm | 0.45 m/s, 359° | - | - |
| 1777726267 | 10.56° C | 81% | 1020.6 hPa | 0 mm | 0 m/s | - | - |
| 1777725366 | 10.56° C | 82% | 1020.4 hPa | 0 mm | 2.24 m/s, 0° | - | - |
| 1777724468 | 9.44° C | 85% | 1020.4 hPa | 0 mm | 2.24 m/s, 21° | - | - |
| 1777723566 | 8.89° C | 86% | 1020.1 hPa | 0 mm | 2.24 m/s, 11° | - | - |
* Rain latest hour (hover to see other rain measurements)
** Current wind speed in m/s (hover to see current wind gust speed)